Home > Weather > Smara > Past weeks

Weather for the Past 2 Weeks in Smara, Western Sahara

Now
72 °F

Sunny.


Feels Like: 76 °F
Forecast: N/A
Wind: 22 mph from Northeast

Location: Laayoune/Hassan Isl

Current Time: Feb 13, 2016 at 5:28:20 PM

Latest Report: Feb 13, 2016 at 5:00 PM


Visibility: 10 mi

Pressure: 30.21 "Hg

Humidity: 61%

Dew point: 57 °F

Location of SmaraLocation

Historic Weather in Smara — Graph

°F

Smara Temperature Yesterday

Maximum temperature yesterday: 72 °F (at 1:00 PM)
Minimum temperature yesterday: 63 °F (at 12:00 AM)
Average temperature yesterday: 66 °F

High & Low Weather Summary for the Past Weeks

 TemperatureHumidityPressure
High86 °F (Feb 6, 2:00 PM)100% (Jan 30, 5:00 AM)30.45 "Hg (Jan 30, 5:00 AM)
Low-69 °F (Feb 3, 5:00 PM)11% (Feb 6, 5:00 PM)30.09 "Hg (Feb 5, 3:00 PM)
Average66 °F62%30.28 "Hg
* Reported Jan 29 4:00 PM — Feb 13 4:00 PM, Smara, Weather by CustomWeather, © 2016

Note: Actual official high and low records may vary slightly from our data, if they occured in-between our weather recording intervals... More about our weather records

Advertising

Smara Weather History for the Previous 24 Hours

 ConditionsComfort  
Time TempWeatherWind HumidityBarometerVisibility
4:00 PM
Sat, Feb 13
73 °FScattered clouds.23 mph57%30.21 "HgN/A
3:00 PM73 °FScattered clouds.26 mph57%30.21 "HgN/A
2:00 PM75 °FPartly sunny.23 mph54%30.21 "HgN/A
1:00 PM73 °FPartly sunny.25 mph57%30.24 "Hg5 mi
12:00 PM72 °FPartly sunny.25 mph61%30.27 "Hg5 mi
11:00 AM72 °FPartly sunny.23 mph57%30.27 "Hg5 mi
10:00 AM68 °FPartly sunny.23 mph64%30.27 "Hg5 mi
9:00 AM66 °FPartly sunny.23 mph68%30.24 "Hg5 mi
8:00 AM64 °FOvercast.21 mph73%30.24 "HgN/A
7:00 AM64 °FPassing clouds.21 mph73%30.21 "Hg5 mi
6:00 AM63 °FPassing clouds.20 mph73%30.21 "Hg5 mi
5:00 AM63 °FPassing clouds.20 mph77%30.18 "Hg5 mi
4:00 AM63 °FPassing clouds.22 mph77%30.18 "Hg5 mi
3:00 AM64 °FPassing clouds.18 mph73%30.21 "Hg5 mi
2:00 AM63 °FPassing clouds.15 mph77%30.21 "Hg5 mi
1:00 AM63 °FPassing clouds.21 mph77%30.24 "Hg5 mi
12:00 AM64 °FPassing clouds.23 mph73%30.24 "Hg5 mi
11:00 PM
Fri, Feb 12
64 °FPassing clouds.26 mph73%30.24 "Hg5 mi
10:00 PM64 °FPassing clouds.24 mph73%30.24 "Hg5 mi
9:00 PM64 °FPassing clouds.20 mph73%30.24 "Hg5 mi
8:00 PM64 °FPassing clouds.28 mph73%30.24 "Hg5 mi
7:00 PM66 °FPartly sunny.23 mph68%30.21 "Hg5 mi
6:00 PM68 °FScattered clouds.25 mph60%30.21 "Hg5 mi
5:00 PM70 °FPartly sunny.28 mph60%30.18 "Hg5 mi
Weather by CustomWeather, © 2016

See weather overviewHow to use our weather pages